KL1YC Weather Reports


time (UTC)temp
C
wind
direction
speed
KPH
gust
KPH
rain 1hr
cm
rain 24hr
cm
rain mn
cm
humidity
%
barometer
mb
20260901174536 3 270 0.0 0.0 0.00 0.00 0.00 87 1008.0
20260901173035 3 269 1.6 0.0 0.00 0.00 0.00 87 1008.1
20260901171537 2 249 0.0 0.0 0.00 0.00 0.00 89 1008.2
20260901170036 2 239 0.0 0.0 0.00 0.00 0.00 89 1008.3
20260901164534 3 295 0.0 0.0 0.00 0.00 0.00 89 1008.3
20260901163034 2 246 0.0 0.0 0.00 0.00 0.00 92 1008.3
20260901161539 2 246 0.0 0.0 0.00 0.00 0.00 94 1008.1
20260901160048 2 246 0.0 0.0 0.00 0.00 0.00 95 1008.2
20260901154535 1 246 0.0 0.0 0.00 0.00 0.00 95 1008.2
20260901153037 1 246 0.0 0.0 0.00 0.00 0.00 96 1008.1
20260901151532 0 246 0.0 0.0 0.00 0.00 0.00 95 1008.1
20260901150034 0 246 0.0 0.0 0.00 0.00 0.00 94 1008.1
20260901144532 0 246 0.0 0.0 0.00 0.00 0.00 95 1008.1
20260901143033 0 246 0.0 0.0 0.00 0.00 0.00 95 1008.1
20260901141535 0 246 0.0 0.0 0.00 0.00 0.00 95 1008.1
20260901140033 0 246 0.0 0.0 0.00 0.00 0.00 94 1008.2
20260901134550 0 246 0.0 0.0 0.00 0.00 0.00 94 1008.4
20260901133032 0 246 0.0 0.0 0.00 0.00 0.00 95 1008.3
20260901131533 0 246 0.0 0.0 0.00 0.00 0.00 94 1008.4
20260901130032 0 246 0.0 0.0 0.00 0.00 0.00 93 1008.3
20260901124529 0 246 0.0 0.0 0.00 0.00 0.00 92 1008.5
20260901123027 0 246 0.0 0.0 0.00 0.00 0.00 92 1008.3
20260901121528 0 246 0.0 0.0 0.00 0.00 0.00 92 1008.2
20260901120024 1 246 0.0 0.0 0.00 0.00 0.00 91 1008.1
20260901114527 1 246 0.0 0.0 0.00 0.00 0.00 90 1008.1
20260901113023 2 246 0.0 0.0 0.00 0.00 0.00 91 1008.1
20260901111518 2 246 0.0 0.0 0.00 0.00 0.00 89 1008.1
20260901110017 2 246 0.0 0.0 0.00 0.00 0.00 89 1008.0
20260901104518 3 246 0.0 0.0 0.00 0.00 0.00 87 1008.0
20260901103012 3 246 0.0 0.0 0.00 0.00 0.00 87 1008.0
20260901101511 3 246 0.0 0.0 0.00 0.00 0.00 87 1008.0
20260901100009 4 246 0.0 0.0 0.00 0.00 0.00 86 1008.1
20260901094508 5 246 0.0 0.0 0.00 0.00 0.00 85 1008.1
20260901093015 5 246 0.0 0.0 0.00 0.00 0.00 84 1008.2
20260901091504 5 246 0.0 0.0 0.00 0.00 0.00 82 1008.0
20260901090006 6 246 0.0 0.0 0.00 0.00 0.00 80 1008.0
20260901084501 6 246 0.0 0.0 0.00 0.00 0.18 79 1008.0
20260901083059 6 236 0.0 0.0 0.00 0.00 0.18 78 1007.9
20260901081610 6 232 0.0 0.0 0.00 0.00 0.18 77 1007.8
20260901080058 7 261 0.0 0.0 0.00 0.00 0.18 75 1007.8
20260901074508 7 227 0.0 0.0 0.00 0.00 0.18 73 1007.8
20260901073008 7 245 0.0 0.0 0.00 0.00 0.18 71 1007.8
20260901071510 8 240 0.0 0.0 0.00 0.00 0.18 70 1007.6
20260901070006 8 250 0.0 0.0 0.00 0.00 0.18 69 1007.6
20260901064558 8 244 0.0 0.0 0.00 0.00 0.18 68 1007.5
20260901063056 8 244 0.0 0.0 0.00 0.00 0.18 67 1007.5
20260901061559 8 233 0.0 0.0 0.00 0.00 0.18 67 1007.4
20260901060054 8 246 0.0 0.0 0.00 0.00 0.18 67 1007.3
20260901054554 8 246 0.0 0.0 0.00 0.00 0.18 67 1007.1
20260901053108 8 246 0.0 0.0 0.00 0.00 0.18 66 1007.0
20260901051554 9 246 0.0 0.0 0.00 0.00 0.18 65 1007.0
20260901050053 9 246 0.0 0.0 0.00 0.00 0.18 63 1007.0
20260901044624 9 246 0.0 0.0 0.00 0.00 0.18 61 1006.9
20260901043056 10 246 0.0 0.0 0.00 0.00 0.18 60 1006.9
20260901041555 10 246 0.0 0.0 0.00 0.00 0.18 60 1006.8
20260901040057 10 246 0.0 0.0 0.00 0.00 0.18 59 1006.7
20260901034557 10 249 0.0 0.0 0.00 0.00 0.18 58 1006.6
20260901033051 10 249 1.6 0.0 0.00 0.00 0.18 57 1006.5
20260901031553 10 243 1.6 0.0 0.00 0.00 0.18 57 1006.4
20260901030049 11 261 3.2 0.0 0.00 0.00 0.18 54 1006.4
20260901024550 11 215 1.6 0.0 0.00 0.00 0.18 55 1006.4
20260901023049 11 276 3.2 0.0 0.00 0.00 0.18 54 1006.4
20260901021608 11 231 1.6 0.0 0.00 0.00 0.18 52 1006.3
20260901020101 11 263 1.6 0.0 0.00 0.00 0.18 49 1006.1
20260901014550 11 250 4.8 0.0 0.00 0.00 0.18 48 1006.0
20260901013046 11 235 4.8 0.0 0.00 0.00 0.18 52 1006.0
20260901011544 10 246 3.2 0.0 0.00 0.00 0.18 53 1005.9
20260901010044 10 258 4.8 0.0 0.00 0.00 0.18 52 1005.9
20260901004544 10 290 3.2 0.0 0.00 0.00 0.18 51 1005.9
20260901003049 10 250 4.8 0.0 0.00 0.00 0.18 56 1005.9
20260901001557 10 294 6.4 0.0 0.00 0.00 0.18 54 1005.9
20260901000047 10 269 4.8 0.0 0.00 0.00 0.18 56 1005.8
20260831234556 10 270 6.4 0.0 0.00 0.00 0.18 57 1005.7
20260831233046 10 264 4.8 0.0 0.00 0.00 0.18 56 1005.7
20260831231541 10 213 3.2 0.0 0.00 0.00 0.18 57 1005.5
20260831230037 10 252 4.8 0.0 0.00 0.00 0.18 61 1005.4
20260831224535 9 346 4.8 0.0 0.00 0.00 0.18 59 1005.4
20260831223034 9 244 4.8 0.0 0.00 0.00 0.18 60 1005.3
20260831221535 9 254 3.2 0.0 0.00 0.00 0.18 60 1005.2
20260831220030 8 268 3.2 0.0 0.00 0.00 0.18 65 1005.0
20260831214530 8 237 4.8 0.0 0.00 0.00 0.18 64 1005.0
20260831213036 8 271 6.4 0.0 0.00 0.00 0.18 68 1004.9
20260831211528 8 287 3.2 0.0 0.00 0.00 0.18 72 1004.8
20260831210024 7 257 3.2 0.0 0.00 0.00 0.18 79 1004.8
20260831204523 7 244 4.8 0.0 0.00 0.00 0.18 82 1004.7
20260831203023 7 202 1.6 0.0 0.00 0.00 0.18 83 1004.6
20260831201526 7 246 1.6 0.0 0.00 0.00 0.18 81 1004.4
20260831200024 7 248 1.6 0.0 0.00 0.00 0.18 83 1004.4
20260831194532 7 267 1.6 0.0 0.00 0.00 0.18 85 1004.3
20260831193021 6 250 1.6 0.0 0.00 0.00 0.18 87 1004.3
20260831191513 6 304 0.0 0.0 0.00 0.00 0.18 90 1004.3
20260831190015 6 274 0.0 0.0 0.00 0.00 0.18 90 1004.2
20260831184521 6 284 0.0 0.0 0.00 0.00 0.18 91 1004.0
20260831183014 6 259 1.6 0.0 0.00 0.00 0.18 92 1003.8
20260831181519 5 245 0.0 0.0 0.00 0.00 0.18 92 1003.8
20260831180011 5 256 0.0 0.0 0.00 0.00 0.18 93 1003.6